Lapse_Rate
7.3 7.4 7.0 6.8 6.8 6.6 6.3 5.5 5.3 5.1 4.9 4.6 4.4 4.2 4.0 3.8 3.6 3.5 3.3 3.3 3.5 3.5 3.7 3.7 4.2 5.0 3.4 2.4 2.0 4.8 4.8 5.0 4.3 3.7 4.2 5.0 6.2 6.5 6.5 6.4 6.2 6.5 6.5 6.2 6.1 6.1 5.7
7.7 7.6 7.3 7.1 6.9 6.8 6.5 6.1 5.8 5.4 5.0 4.7 4.6 4.5 4.1 3.9 3.6 3.2 3.1 3.2 3.0 2.8 3.0 3.6 4.6 5.6 5.9 5.9 3.8 4.2 3.6 3.8 4.1 3.6 4.1 5.2 5.9 6.6 6.3 6.3 6.4 5.8 6.3 6.3 6.2 6.4 6.1
8.1 7.9 7.6 7.2 7.1 6.9 6.7 6.4 6.1 5.6 5.5 5.3 5.2 4.7 4.2 4.1 3.8 3.5 3.3 3.1 3.1 3.0 3.1 3.9 4.6 4.8 5.3 2.3 4.4 4.2 3.7 3.9 4.5 5.1 4.9 5.9 6.3 6.5 6.4 6.5 6.5 6.0 6.5 6.5 6.5 6.2 6.4
8.5 8.1 8.1 7.8 7.4 7.2 6.9 6.7 6.5 6.4 6.1 5.8 5.5 5.2 5.0 4.9 4.4 3.6 3.3 3.2 3.4 3.7 4.2 4.4 4.4 4.5 2.9 4.4 4.8 3.5 3.6 4.2 5.1 5.4 5.7 5.7 6.5 6.2 7.0 6.5 6.5 6.5 6.5 6.5 6.5 6.5 6.2
8.0 7.9 8.0 8.0 7.8 7.6 7.4 7.2 6.8 6.5 6.4 6.4 6.3 6.2 5.9 5.5 4.5 3.9 3.2 3.4 3.8 4.8 5.2 5.2 4.5 4.1 4.0 5.1 5.3 5.0 5.2 6.3 6.3 6.6 6.8 7.9 7.3 6.2 6.5 6.5 6.5 6.5 6.5 6.5 6.5 6.5 6.5
8.1 8.0 7.8 7.9 7.9 7.8 7.9 7.8 7.6 7.2 6.9 6.7 6.6 6.5 6.2 5.7 5.1 4.3 3.9 3.6 5.0 6.2 5.5 5.5 5.9 4.8 5.1 5.7 6.1 7.0 5.5 6.7 6.8 6.6 6.7 6.7 6.0 6.5 6.5 6.5 6.5 6.5 6.5 6.5 6.5 6.5 6.5
8.9 8.1 8.0 7.9 7.9 7.8 7.9 7.9 7.5 7.3 7.5 7.3 6.8 6.6 6.3 6.0 5.4 5.1 3.2 2.0 2.8 4.1 3.6 5.3 5.8 6.4 5.3 6.0 6.3 5.8 5.7 7.0 7.0 6.8 6.5 6.4 6.5 6.5 6.5 6.5 6.5 6.5 6.5 6.5 6.5 6.5 6.5
8.6 8.1 8.4 8.1 8.0 7.8 7.6 7.6 7.4 7.2 7.1 6.9 6.8 6.6 6.3 5.6 5.4 5.1 3.8 5.1 7.0 6.6 6.6 4.7 4.5 5.5 4.7 6.0 5.8 5.5 5.7 6.0 6.4 6.5 6.5 6.5 6.5 6.5 6.5 6.5 6.5 6.5 6.5 6.5 6.5 6.5 6.5
8.2 7.7 7.9 7.9 7.7 8.0 8.2 7.7 7.5 7.3 6.9 6.6 6.6 6.7 6.4 5.2 5.3 3.2 3.1 6.3 5.8 5.0 5.8 5.0 5.3 5.6 5.3 5.2 5.6 4.7 6.0 6.2 6.5 6.5 6.5 6.5 6.5 6.5 6.5 6.5 6.5 6.5 6.5 6.5 6.5 6.5 6.5
8.2 7.9 8.0 8.0 8.0 7.9 8.0 7.9 7.9 7.6 7.3 6.8 6.8 6.8 6.5 5.3 4.3 2.7 5.2 5.7 4.9 4.6 6.5 6.5 6.4 6.8 6.7 6.2 6.2 5.8 6.1 6.4 6.5 6.5 6.5 6.5 6.5 6.5 6.5 6.5 6.5 6.5 6.5 6.5 6.5 6.5 6.5
8.1 8.2 8.6 8.5 8.2 7.8 7.5 7.8 8.2 7.9 7.3 6.8 6.8 6.9 6.6 5.9 3.7 3.5 6.0 4.6 4.3 3.6 6.5 6.5 6.6 7.7 6.1 6.4 6.4 6.4 5.8 6.4 6.5 6.5 6.5 6.5 6.5 6.5 6.5 6.5 6.5 6.5 6.5 6.5 6.5 6.5 6.5
7.7 7.8 7.7 7.8 8.1 7.6 7.5 8.0 8.1 7.4 7.1 7.0 7.0 6.9 6.8 4.4 2.8 3.8 4.9 3.6 3.3 6.5 6.5 6.5 6.5 6.5 6.5 6.0 6.3 5.9 6.1 6.3 6.5 6.5 6.5 6.5 6.5 6.5 6.5 6.5 6.5 6.5 6.5 6.5 6.5 6.5 6.5
7.8 7.7 7.7 8.0 8.0 8.0 7.8 7.7 7.4 7.1 7.1 7.1 6.7 6.4 6.1 5.1 3.5 4.3 3.9 3.0 6.5 6.5 6.5 6.5 6.5 6.5 6.5 6.5 6.5 6.5 6.5 6.5 6.5 6.5 6.5 6.5 6.5 6.5 6.5 6.5 6.5 6.5 6.5 6.5 6.5 6.5 6.5
8.1 8.0 7.8 7.8 8.0 8.4 8.0 7.5 7.2 7.0 6.9 6.8 6.3 5.6 3.6 4.3 4.2 4.5 2.4 5.9 6.5 6.5 6.5 6.5 6.5 6.5 6.5 6.5 6.5 6.5 6.5 6.5 6.5 6.5 6.5 6.5 6.5 6.5 6.5 6.5 6.5 6.5 6.5 6.5 6.5 6.5 6.5
8.3 8.1 8.0 8.0 7.9 8.1 7.8 7.5 7.3 7.1 7.0 6.7 5.5 1.9 2.6 3.3 3.3 3.1 1.9 6.5 6.5 6.5 6.5 6.5 6.5 6.5 6.5 6.5 6.5 6.5 6.5 6.5 6.5 6.5 6.5 6.5 6.5 6.5 6.5 6.5 6.5 6.5 6.5 6.5 6.5 6.5 6.5
8.4 7.9 8.2 8.2 8.2 8.0 7.8 7.6 7.4 7.2 7.0 6.7 2.9 2.1 3.8 4.0 4.2 4.1 5.3 6.5 6.5 6.5 6.5 6.5 6.5 6.5 6.5 6.5 6.5 6.5 6.5 6.5 6.5 6.5 6.6 6.5 6.5 6.5 6.5 6.4 6.5 6.5 6.5 6.5 6.5 6.5 6.5
8.4 8.3 8.1 8.0 7.6 7.8 7.7 7.9 7.7 7.3 7.1 6.0 2.4 3.3 5.2 5.4 3.7 2.7 6.5 6.5 6.5 6.4 6.7 6.5 6.5 6.5 6.5 6.5 6.5 6.5 6.5 6.5 6.5 6.5 6.6 6.5 6.5 6.5 6.5 6.5 6.5 6.5 6.5 6.5 6.5 6.5 6.5
8.5 8.2 8.3 8.1 7.7 8.0 8.0 7.9 7.9 7.4 7.0 4.3 2.9 5.5 5.0 5.1 3.5 4.6 6.5 6.5 6.9 6.4 6.5 6.5 6.5 6.5 6.5 6.5 6.5 6.5 6.5 6.5 6.6 6.5 6.5 6.5 6.5 6.5 6.5 6.5 6.5 6.5 6.5 6.5 6.5 6.5 6.5
8.4 8.5 8.0 8.0 8.0 8.0 8.0 7.9 7.7 7.6 7.0 3.2 2.1 3.1 3.3 4.8 6.5 6.5 6.6 6.5 6.5 6.5 6.5 6.5 6.5 6.5 6.5 6.5 6.5 6.5 6.5 6.3 6.3 6.5 6.5 6.5 6.5 6.5 6.5 6.5 6.5 6.5 6.5 6.5 6.5 6.5 6.5
8.6 8.4 8.2 8.0 8.0 8.0 7.8 7.8 7.7 7.7 6.7 3.5 2.6 6.5 1.5 2.0 3.9 6.4 6.5 6.5 6.5 6.4 6.3 6.4 6.5 6.3 6.5 6.5 6.5 6.5 6.5 6.5 6.2 6.4 7.1 6.4 6.5 6.5 6.5 6.5 6.5 6.5 6.5 6.5 6.5 6.5 6.5
8.5 8.5 8.4 8.1 8.0 7.8 7.8 8.0 7.9 7.8 7.1 4.1 1.9 4.1 5.1 6.5 5.0 6.5 6.5 6.5 6.5 6.5 6.3 6.4 6.5 6.5 6.5 6.5 6.5 6.5 6.5 6.5 6.4 6.7 6.5 6.5 6.5 6.5 6.5 6.5 6.5 6.5 6.5 6.5 6.5 6.5 6.5
7.8 8.2 7.9 7.9 8.0 8.0 8.0 7.8 8.1 7.9 7.3 4.9 2.4 3.3 4.9 5.3 6.3 6.5 6.5 6.5 6.5 6.5 6.5 6.5 6.5 6.5 6.5 6.5 6.5 6.5 6.5 6.5 6.5 6.5 6.5 6.5 6.5 6.5 6.5 6.5 6.5 6.5 6.5 6.5 6.5 6.5 6.5
7.5 7.9 8.5 8.3 7.8 7.6 7.9 7.7 7.7 7.8 7.3 5.8 4.8 5.0 4.8 5.1 6.2 6.5 6.5 6.5 6.5 6.5 6.3 6.1 6.5 6.5 6.5 6.5 5.8 6.3 6.4 6.4 6.5 6.5 6.5 6.5 6.5 6.5 6.5 6.5 6.5 6.5 6.5 6.5 6.5 6.5 6.5
7.6 8.0 8.4 8.3 7.8 7.5 7.7 7.7 7.6 7.7 7.3 5.1 4.7 5.9 6.7 6.5 6.5 6.5 6.5 6.5 6.5 6.5 6.5 6.5 6.3 6.5 6.5 6.3 5.8 5.8 5.7 6.5 6.4 6.5 6.5 6.5 6.5 6.5 6.5 6.5 6.5 6.5 6.5 6.5 6.5 6.5 6.5
7.7 7.7 8.3 8.3 7.8 7.8 7.8 7.7 7.6 7.6 7.8 6.0 5.3 6.2 6.7 6.5 6.0 6.5 6.5 6.5 6.6 6.5 6.5 6.6 6.7 6.4 6.5 7.2 6.5 6.5 6.5 6.5 6.5 6.5 6.5 6.5 6.5 6.5 6.5 6.5 6.5 6.5 6.5 6.5 6.5 6.5 6.5
7.9 7.6 8.1 8.3 7.8 7.7 7.8 7.9 7.7 7.7 7.7 6.7 5.9 5.9 6.0 5.4 6.3 6.6 6.1 6.6 6.5 6.5 6.5 6.6 6.4 5.7 6.2 6.2 6.5 6.5 6.5 6.5 6.5 6.5 6.5 6.5 6.5 6.5 6.5 6.5 6.5 6.5 6.5 6.6 6.5 6.5 6.5
8.2 8.3 9.0 9.2 8.1 7.9 7.9 7.9 7.6 7.8 7.8 6.5 6.5 6.5 6.4 6.2 4.3 5.7 5.7 6.1 6.2 5.9 6.5 5.2 5.6 5.2 6.1 6.5 6.5 6.5 6.5 6.5 6.5 6.5 6.5 6.5 6.5 6.5 6.5 6.5 6.5 6.5 6.5 6.4 6.5 6.5 6.7
8.5 8.7 8.5 8.4 8.0 8.1 7.9 7.8 7.9 8.2 7.8 6.4 5.0 6.3 6.2 6.0 4.5 5.9 6.2 6.2 6.0 6.2 6.5 4.3 5.6 5.6 4.9 6.5 6.5 6.5 6.5 6.5 6.5 6.5 6.5 6.5 6.5 6.5 6.5 6.5 6.5 6.4 6.5 6.5 6.5 6.3 6.7
8.2 8.5 8.6 8.4 7.9 7.8 7.9 8.0 8.4 8.2 8.0 7.8 5.8 5.4 7.0 6.7 5.8 5.0 5.5 6.0 6.7 6.4 6.7 6.0 4.5 6.3 4.9 6.5 6.5 6.5 6.5 6.5 6.5 6.5 6.5 6.5 6.5 6.5 6.5 6.5 6.3 5.9 6.0 5.8 5.8 6.4 7.1
Wind_Speed
8 9 9 10 9 10 10 12 12 13 14 15 17 18 19 20 21 22 22 22 21 19 17 15 12 12 5 4 7 7 14 21 10 6 5 4 1 3 4 4 3 15 16 11 8 10 9
7 8 8 9 9 9 10 11 12 13 15 17 18 19 20 22 23 25 26 27 26 25 22 17 10 6 2 2 2 5 14 6 4 5 4 4 4 6 5 5 6 6 7 13 11 18 11
5 5 7 8 8 9 10 11 13 15 16 17 19 20 22 23 25 26 28 28 27 26 25 17 6 1 1 10 4 14 5 2 1 1 3 2 4 3 5 4 5 5 16 14 17 4 7
8 9 5 6 8 9 10 11 12 14 16 18 19 21 22 23 25 29 31 29 27 23 16 6 5 3 5 5 12 7 1 4 2 4 3 7 5 4 4 6 4 5 5 15 27 15 7
9 10 9 8 8 9 10 10 12 14 16 17 18 20 22 24 26 30 31 29 24 9 8 8 4 4 8 5 3 3 3 0 3 3 5 12 5 5 4 4 4 8 15 21 27 9 5
7 9 10 10 11 12 11 12 11 12 14 16 18 20 22 25 27 32 31 25 13 2 1 1 2 3 4 3 4 2 4 3 1 4 5 2 2 3 3 5 15 12 18 16 24 4 11
5 8 9 10 11 12 13 13 14 15 15 15 16 19 22 24 27 26 15 4 6 5 7 4 9 4 14 6 4 4 5 3 2 1 1 2 1 7 6 12 17 16 19 21 30 7 9
4 8 7 9 10 10 11 12 13 15 15 16 17 18 21 24 27 13 6 5 4 4 9 7 11 8 9 2 4 4 2 3 2 2 2 2 5 11 9 12 15 20 23 28 32 13 17
5 6 7 8 9 11 11 11 12 13 15 16 17 18 20 24 20 5 3 3 4 2 3 6 4 4 5 6 4 5 4 1 2 2 5 7 8 7 8 11 13 19 22 27 31 13 19
5 6 6 6 9 11 11 11 11 13 14 16 16 17 18 23 4 4 3 5 11 1 4 5 2 1 2 2 4 3 4 2 1 4 4 7 6 9 11 15 12 15 20 22 25 6 12
9 9 8 8 8 11 14 11 10 12 14 15 15 16 17 11 2 4 4 16 9 4 5 6 2 1 8 2 5 1 1 2 4 4 1 8 3 6 13 15 8 13 9 19 21 16 16
8 10 5 4 6 10 12 9 10 12 13 14 15 16 17 4 2 5 14 9 4 6 5 5 3 7 8 5 5 7 2 2 2 5 5 19 8 6 11 13 14 10 10 13 13 11 16
7 7 6 6 8 8 10 10 11 11 13 15 17 18 14 4 3 2 9 4 5 4 4 4 5 7 7 4 5 4 5 4 1 4 4 10 4 3 4 6 9 10 6 4 5 9 11
10 9 7 7 12 5 8 10 11 13 14 16 17 19 4 4 2 4 3 5 4 3 3 3 4 9 3 9 5 8 5 3 1 1 4 3 9 1 2 4 5 10 8 5 6 8 17
10 8 8 8 8 7 8 9 10 13 12 16 14 4 2 2 3 3 5 4 5 3 3 6 8 3 3 5 1 7 3 3 2 4 2 3 7 5 5 7 5 3 6 15 11 19 11
11 8 10 10 9 8 8 8 10 12 12 13 2 3 3 5 9 3 4 3 3 3 4 3 2 3 4 5 5 6 3 3 7 2 4 2 8 4 4 3 5 5 9 6 7 6 9
10 10 10 9 9 11 8 7 9 10 10 6 3 3 1 3 3 4 2 5 4 4 4 3 2 4 3 3 3 5 5 4 2 7 3 9 7 5 5 1 2 5 4 4 6 6 4
10 10 9 10 10 9 8 7 5 7 7 6 2 2 3 0 3 1 2 3 4 4 3 4 4 4 4 4 4 4 5 2 8 8 8 3 5 5 13 2 4 3 3 3 3 6 5
12 10 11 10 7 8 8 7 5 3 3 3 2 2 3 3 1 2 4 4 3 2 2 4 3 4 2 3 5 4 5 5 10 10 4 5 3 5 8 2 2 5 2 2 6 4 5
10 11 12 8 8 6 7 6 6 4 4 3 3 2 4 3 1 4 0 3 2 3 5 4 4 4 3 3 6 6 13 6 8 11 20 5 3 9 11 7 12 12 15 11 3 4 9
10 10 11 9 9 7 8 6 7 7 8 3 3 3 3 2 3 2 1 2 6 4 4 2 3 2 4 4 10 7 11 18 10 15 3 2 5 10 11 18 19 17 17 18 15 15 8
12 10 10 9 8 9 9 8 6 5 11 2 2 2 1 2 2 2 3 3 5 5 3 4 5 7 5 5 8 16 16 12 11 8 7 2 7 11 17 13 8 18 19 17 9 6 8
12 11 11 11 10 11 9 8 8 8 8 2 1 0 3 3 1 3 4 5 4 2 6 5 5 10 10 13 8 14 15 16 17 18 20 6 3 1 7 7 14 9 3 6 12 4 3
14 11 11 10 10 12 13 11 9 11 13 3 2 2 2 4 4 5 4 5 10 10 13 13 9 8 5 7 12 12 12 16 19 20 18 12 8 2 5 3 3 6 12 5 10 9 10
12 9 9 8 11 13 11 15 11 10 12 3 3 2 2 3 3 8 11 10 10 10 12 9 10 11 3 9 4 7 5 6 7 8 10 16 8 2 2 3 9 11 2 4 7 8 11
11 7 5 8 8 11 11 13 10 10 9 6 3 4 2 1 6 8 3 3 2 3 4 8 5 5 0 2 3 1 3 5 6 9 10 8 11 5 1 4 5 4 10 14 8 3 16
11 9 9 13 12 12 13 12 8 10 11 5 2 9 2 3 4 5 4 4 3 1 3 4 5 4 2 1 1 3 3 4 3 6 6 1 4 11 6 4 6 4 10 11 2 5 18
10 11 9 9 9 10 9 9 10 10 11 6 2 13 4 3 5 6 6 6 2 2 4 3 5 3 3 1 3 3 2 3 3 6 6 3 1 3 3 3 5 2 8 4 3 4 11
4 4 4 5 3 5 7 11 9 10 12 9 2 6 11 5 5 4 6 11 15 18 6 5 6 2 2 2 0 1 2 2 2 3 4 3 3 3 3 4 5 7 5 10 6 6 8
Wind_Direction
49 46 40 35 30 28 27 23 16 11 11 9 5 1 358 356 350 343 338 334 330 323 319 315 319 335 30 12 257 352 16 2 11 6 29 1 225 208 233 256 220 245 257 259 252 258 256
45 41 38 35 27 22 21 17 12 11 10 7 3 359 356 353 347 340 335 331 327 320 315 309 308 329 122 311 310 1 4 350 8 13 8 11 304 307 267 250 233 311 307 271 257 256 254
17 23 25 25 20 16 14 12 10 11 8 4 1 359 355 350 342 335 332 326 321 318 315 310 311 117 217 242 322 304 335 281 269 325 343 235 275 283 340 272 310 298 292 285 257 203 239
23 14 354 5 3 5 5 7 9 7 6 2 359 357 352 346 340 335 329 320 317 324 349 38 111 132 243 251 302 316 217 322 256 224 239 255 276 240 238 297 287 283 256 263 255 219 209
23 12 6 356 340 345 349 354 0 0 359 355 354 352 348 345 340 335 327 320 318 341 55 95 78 102 283 299 337 303 162 183 324 305 266 283 187 207 250 209 287 226 256 251 271 210 193
356 349 349 354 356 358 345 342 342 347 347 347 347 347 345 344 340 337 327 320 313 50 41 260 122 14 289 303 301 264 195 209 347 310 306 349 133 229 224 191 230 244 244 267 267 278 197
359 345 339 338 340 347 350 355 1 357 342 337 341 344 344 342 343 337 341 7 13 351 40 271 276 279 278 302 285 281 258 158 187 129 239 276 103 238 244 244 256 268 266 260 268 242 261
347 331 330 345 342 344 343 344 349 348 346 344 343 345 344 342 341 346 358 74 88 237 305 277 259 244 268 263 304 285 123 125 126 236 190 321 241 254 250 266 271 274 259 258 271 252 277
329 326 330 342 344 338 340 341 345 349 348 342 342 343 345 342 339 32 340 65 321 281 298 299 254 249 272 138 244 279 127 124 237 281 210 232 243 250 250 249 271 254 260 256 261 290 273
294 297 305 317 329 330 324 325 332 337 339 342 341 343 348 347 51 329 331 326 333 170 50 286 314 291 1 228 281 200 177 219 244 282 270 242 268 240 263 250 232 262 246 263 271 290 256
274 273 274 289 321 324 320 307 323 338 336 336 335 341 344 357 266 326 296 333 342 58 17 290 45 13 315 289 310 7 48 54 242 245 24 261 243 227 236 251 193 248 245 250 261 262 280
327 299 285 302 328 335 343 345 345 333 332 334 330 329 335 354 339 251 311 324 39 45 260 332 40 351 350 335 324 323 324 20 264 294 233 266 267 289 253 273 249 290 289 259 257 247 246
317 311 313 320 318 304 325 333 338 331 327 332 325 322 319 187 235 297 351 37 37 119 297 18 339 332 318 312 315 336 312 286 233 12 333 307 269 277 235 273 254 251 274 268 220 213 253
289 291 299 303 312 307 322 322 327 327 328 332 325 320 327 236 279 287 44 52 81 267 285 352 326 315 301 24 330 319 303 307 256 319 288 329 322 275 147 212 263 250 222 216 214 222 246
278 284 290 291 303 313 309 320 327 333 331 337 331 332 353 292 179 91 70 58 208 232 347 338 322 319 307 22 286 355 307 273 280 204 206 285 267 276 216 250 153 323 211 238 245 261 279
286 306 275 271 274 277 290 299 316 329 335 347 5 354 318 5 143 81 72 241 260 230 355 328 282 360 319 333 351 338 308 320 339 2 267 246 276 244 282 288 159 242 291 285 200 204 236
283 282 277 290 298 266 262 283 311 327 336 4 45 39 310 29 57 47 161 231 288 279 11 282 286 291 278 300 264 305 282 346 337 344 321 282 234 278 349 344 286 351 342 287 277 246 221
291 295 299 296 291 273 264 254 290 327 349 46 75 34 312 73 41 302 186 219 285 291 314 282 240 245 273 327 284 276 252 230 314 355 319 264 302 289 282 308 210 261 241 290 313 307 278
276 277 278 292 286 286 286 264 241 311 26 107 92 277 324 81 135 249 257 258 252 290 314 339 281 265 308 318 317 305 324 345 319 339 321 324 309 309 308 310 311 288 227 187 274 285 275
282 266 274 278 266 282 282 270 217 209 147 85 74 14 324 43 12 147 222 272 278 314 281 236 261 296 357 314 280 297 298 300 313 298 298 312 281 310 310 322 298 291 292 291 224 265 317
278 266 271 277 256 262 271 255 221 196 159 92 39 252 189 281 318 127 74 272 284 281 228 268 286 329 336 284 302 276 307 306 295 293 298 294 264 283 275 305 289 285 284 297 281 266 260
265 254 254 263 269 275 265 229 213 209 153 92 127 137 316 278 289 227 256 248 229 245 226 239 260 291 285 249 256 287 288 284 280 284 279 248 259 320 295 280 315 311 302 299 294 259 253
304 246 251 253 253 269 252 226 210 217 150 138 114 69 112 256 220 105 227 229 252 265 253 243 279 306 288 274 276 283 270 269 260 265 268 243 223 278 276 323 322 310 223 292 316 264 246
302 262 255 247 251 267 267 217 215 224 189 138 168 138 200 260 198 211 225 247 269 276 272 283 279 269 246 314 301 281 263 258 259 255 239 231 213 199 269 325 343 250 306 265 359 19 357
288 280 251 256 256 259 259 209 209 226 215 151 156 161 209 256 218 252 251 260 265 271 275 273 273 262 325 319 301 337 323 329 276 235 250 207 189 248 213 220 286 294 36 345 359 309 5
283 288 259 273 285 278 255 227 208 225 246 192 173 150 182 190 227 246 217 237 264 246 291 269 285 280 301 103 80 220 273 252 307 326 43 171 198 198 132 242 233 266 343 327 326 230 348
283 278 281 284 275 268 263 220 214 230 238 184 188 174 198 248 247 183 193 209 215 214 241 300 301 313 75 71 183 214 261 279 315 314 330 317 162 207 219 258 286 280 330 313 172 350 313
281 267 264 282 277 267 208 223 234 235 258 158 207 181 204 248 253 210 190 213 257 184 235 267 0 349 30 133 159 248 249 283 295 274 282 277 223 213 185 211 291 207 348 360 259 289 306
283 285 254 284 269 262 259 268 232 247 260 228 210 191 202 236 265 227 223 234 226 228 228 194 208 209 228 86 324 316 326 304 270 281 266 260 216 287 213 241 268 310 218 274 224 252 301